Regional Weather Roundup
Issued by NWS Lake Charles, LA

Home | Current Version | Previous Version | Text Only | Print | Product List | Glossary On
Versions: 1 2 3 4 5 6 7 8 9 10 11 12 13 14 15 16 17 18 19 20 21 22 23 24 25 26 27 28
000
ASUS44 KLCH 230310
RWRLCH
REGIONAL WEATHER ROUNDUP
NATIONAL WEATHER SERVICE LAKE CHARLES LA
900 PM CST THU FEB 22 2018

Note: "fair" indicates few or no clouds below 12,000 feet with no
significant weather and/or obstructions to visibility.


ACROSS SOUTHEAST TEXAS

CITY           SKY/WX    TMP DP  RH WIND       PRES   REMARKS
BEAUMONT       CLOUDY    72  70  93 S12       30.21R
BEAUMONT CITY  CLOUDY    73  70  89 S9        30.21S
ORANGE         CLOUDY    72  72 100 S7        30.24R
JASPER         CLOUDY    74  71  90 S3        30.23R
$$

ACROSS CENTRAL LOUISIANA

CITY           SKY/WX    TMP DP  RH WIND       PRES   REMARKS
LEESVILLE      FAIR      71  69  92 SE9       30.22R
FULLERTON      FAIR     N/A N/A N/A CALM      30.20R
ALEXANDRIA INT FAIR      72  67  84 S9        30.21S
ESLER FIELD    FAIR      72  67  84 S6        30.23R
DERIDDER       CLOUDY    73  71  95 S5        30.24R
OAKDALE        CLOUDY    72  67  86 SE3       30.24S
OPELOUSAS      FAIR      71  68  89 S10       30.26R
$$

ACROSS SOUTHWEST AND SOUTH CENTRAL LOUISIANA

CITY           SKY/WX    TMP DP  RH WIND       PRES   REMARKS
SULPHUR        CLOUDY    73  72  95 SE10      30.24R
LAKE CHARLES   CLOUDY    73  71  93 SE8       30.23S
CHENNAULT INT  CLOUDY    73  70  88 SE12G18   30.24R
CAMERON PHI    CLOUDY    70  70 100 SE12      30.23S FOG
DEQUINCY       CLOUDY    72  69  89 SE9       30.23R
JENNINGS       CLOUDY    72  69  92 SE7       30.24S
LAFAYETTE      FAIR      73  70  90 S6        30.26R
NEW IBERIA     FAIR      71  67  87 S9        30.27R
ABBEVILLE      CLOUDY    71  71 100 SE6       30.27R
PATTERSON      FAIR      72  70  93 SE5       30.28R
SALT POINT       N/A     71  70  96 SE6       30.25S
$$

SELECTED SITES ACROSS THE REGION

CITY           SKY/WX    TMP DP  RH WIND       PRES   REMARKS
HOUSTON BUSH   LGT RAIN  63  62  97 NW6       30.19R FOG
HOUSTON HOBBY  CLOUDY    72  72 100 S12       30.18R FOG
GALVESTON      CLOUDY    71  70  96 SE12      30.20R FOG
COLLEGE STAT   CLOUDY    44  44 100 N6        30.25R FOG
CONROE         CLOUDY    54  54 100 N5        30.21R FOG
HUNTSVILLE     CLOUDY    50  49  96 NW6       30.22S FOG
LUFKIN         FOG       61  61 100 CALM      30.19S VSB 1
SHREVEPORT     TSTM      55  55 100 E3        30.21R
MONROE         FAIR      58  56  93 E3        30.24R
NATCHEZ MS     FAIR      74  66  76 S12       30.26R
BATON ROUGE    MOCLDY    75  67  76 E5        30.27R
N.O. INTL ARPT FAIR      74  72  93 SE14      30.30R
SLIDELL        CLOUDY    74  70  87 SE8       30.31R
$$

MARINE REPORTS

STATION/POSITION TIME  SKY/WX   TEMP    WIND        PRES    VSBY
                                AIR SEA DIR/SP/G
                 (UTC)          (F)     (DEG/KT/KT) (MB)    (MI)
BUOY 30 S HIGH I 0150            66 63  140/ 10/ 10 1022.3
WVE H/P(F/S)=  3/ 8

SEA RIM ST PARK  0300            68     150/  8/ 10 1023.5R
PORT ARTHUR      0242            70 69  150/  6/  9 1023.4R
SABINE PASS N    0242            68 71  140/ 11/ 12 1024.7R
TEXAS POINT      NOT AVBL
CALCASIEU PASS   0242            70 70  150/  9/ 12 1022.5R
LK CHARLES BEACH 0242            73 68              1023.1R
MARSH ISLAND     0200            71                   N/A
FRESH WATER LOCK 0242            72 75  120/  7/ 11 1024.6R
AMERADA PASS     0242            73 60  130/  4/  7 1025.1R
$$




USA.gov is the U.S. government's official web portal to all federal, state and local government web resources and services.